Location: Mentone
(34.5413°N, 85.5351°W)
Time: 19:07:39
(UTC-05:00)

S-56A Canister/Altair - Visible Passes

Search period start: 21 September 2014 00:00
Search period end: 01 October 2014 00:00
Orbit: 633 x 2503 km, 38.9° (Epoch: 17 September)

Date Brightness Start Highest point End Pass type
(mag) Time Alt. Az. Time Alt. Az. Time Alt. Az.
21 Sep 8.5 05:28:11 10° SSW 05:32:17 32° SSE 05:36:18 10° E visible
22 Sep 8.7 04:57:47 17° SSW 05:00:17 27° SSE 05:04:03 10° E visible
23 Sep 8.9 04:27:36 22° SSE 04:28:16 23° SSE 04:31:49 10° E visible
24 Sep 9.4 03:57:22 18° SE 03:57:22 18° SE 03:59:35 10° E visible
24 Sep 7.1 05:55:01 10° WSW 05:59:38 88° SSE 06:04:10 10° ENE visible
25 Sep 10.1 03:27:07 11° ESE 03:27:07 11° ESE 03:27:19 10° ESE visible
25 Sep 7.2 05:24:35 22° WSW 05:27:38 78° SSE 05:32:04 10° ENE visible
26 Sep 7.3 04:54:18 45° SW 04:55:37 68° SSE 05:00:00 10° ENE visible
27 Sep 7.6 04:23:58 57° SE 04:23:58 57° SE 04:27:59 10° ENE visible
28 Sep 8.9 03:53:36 30° E 03:53:36 30° E 03:56:00 10° ENE visible
28 Sep 7.5 05:51:05 13° W 05:55:16 56° N 05:59:39 10° ENE visible
29 Sep 10.0 03:23:14 15° E 03:23:14 15° E 03:24:02 10° E visible
29 Sep 7.4 05:20:42 27° W 05:23:13 61° NNW 05:27:35 10° ENE visible
30 Sep 7.3 04:50:18 55° WNW 04:51:09 67° NNW 04:55:35 10° ENE visible
